Eau Claire, WI

4:02 PM CST on February 19, 2017 (GMT -0600)
Chippewa Valley Regional

Weather History for KEAU - October, 2012

Change the Weather History Date:

Friday, October 26, 2012

  Actual Average Record
Temperature  
Mean Temperature 36 °F 44 °F  
Max Temperature 42 °F 53 °F 84 °F (1927)
Min Temperature 30 °F 34 °F 13 °F (1962)
Degree Days  
Heating Degree Days 29 22  
Month to date heating degree days 461 438  
Since 1 July heating degree days 702 671  
Cooling Degree Days 0 0  
Month to date cooling degree days 0 4  
Year to date cooling degree days 830 579  
Moisture  
Dew Point 24 °F    
Average Humidity 63    
Maximum Humidity 78    
Minimum Humidity 48    
Precipitation  
Precipitation 0.00 in 0.06 in 1.44 in (1941)
Month to date precipitation 1.54 2.05  
Year to date precipitation 21.71 27.85  
Snow  
Snow 0.00 in 0.00 in 1.10 in (1959)
Month to date snowfall T 0.2  
Since 1 July snowfall T 0.2  
Since 1 September snowfall T 0.2  
Snow Depth 0.00 in    
Sea Level Pressure  
Sea Level Pressure 30.29 in    
Wind  
Wind Speed 9 mph (West)    
Max Wind Speed 17 mph    
Max Gust Speed 23 mph    
Visibility 10 miles    
Events      
T = Trace of Precipitation, MM = Missing Value Source: NWS Daily Summary

Daily Weather History Graph

Daily Weather History Graph

Search for Another Location

Airport or City:

Trip Planner

Search our weather history database for the weather conditions in past years. The results will help you decide how hot, cold, wet, or windy it might be!

Date:

Astronomy

Oct. 26, 2012 Rise Set
Actual Time 7:36 AM CDT 6:02 PM CDT
Civil Twilight 7:06 AM CDT 6:32 PM CDT
Nautical Twilight 6:32 AM CDT 7:06 PM CDT
Astronomical Twilight 5:58 AM CDT 7:40 PM CDT
Moon 4:23 PM CDT (10/26) 4:26 AM CDT (10/26)
Length of Visible Light 11h 25m
Length of Day
10h 25m
Waxing Gibbous, 91% of the Moon is Illuminated
Oct 26
Waxing Gibbous
Oct 29
Full
Nov 6
Last Quarter
Nov 13
New
Nov 20
First Quarter

Hourly Weather History & Observations

Time (CDT) Temp. Windchill Dew Point Humidity Pressure Visibility Wind Dir Wind Speed Gust Speed Precip Events Conditions
12:56 AM 37.9 °F 30.9 °F 25.0 °F 60% 30.14 in 10.0 mi WNW 10.4 mph 18.4 mph N/A   Overcast
1:56 AM 37.0 °F 29.8 °F 25.0 °F 62% 30.15 in 10.0 mi West 10.4 mph - N/A   Mostly Cloudy
2:56 AM 36.0 °F 29.6 °F 25.0 °F 64% 30.17 in 10.0 mi West 8.1 mph - N/A   Clear
3:56 AM 33.1 °F 28.7 °F 25.0 °F 72% 30.18 in 10.0 mi WSW 4.6 mph - N/A   Clear
4:56 AM 32.0 °F 25.6 °F 25.0 °F 75% 30.19 in 10.0 mi WSW 6.9 mph - N/A   Clear
5:56 AM 32.0 °F 24.8 °F 25.0 °F 75% 30.22 in - WSW 8.1 mph - N/A   Clear
6:56 AM 30.9 °F 24.3 °F 25.0 °F 79% 30.25 in 8.0 mi WSW 6.9 mph - N/A   Clear
8:56 AM 33.1 °F 25.5 °F 26.1 °F 75% 30.32 in 10.0 mi SW 9.2 mph - N/A   Overcast
9:56 AM 35.1 °F 26.4 °F 27.0 °F 72% 30.35 in - WSW 12.7 mph - N/A   Overcast
11:56 AM 37.9 °F 28.9 °F 24.1 °F 57% 30.36 in - WNW 16.1 mph 23.0 mph N/A   Overcast
1:56 PM 39.9 °F 32.5 °F 23.0 °F 51% 30.33 in - West 12.7 mph 20.7 mph N/A   Overcast
2:56 PM 39.0 °F 31.8 °F 23.0 °F 53% 30.33 in 10.0 mi WNW 11.5 mph - N/A   Overcast
3:56 PM 39.0 °F 32.8 °F 21.9 °F 50% 30.33 in 10.0 mi West 9.2 mph 18.4 mph N/A   Overcast
4:56 PM 37.9 °F 29.6 °F 21.9 °F 53% 30.34 in 10.0 mi WNW 13.8 mph - N/A   Overcast
5:56 PM 37.0 °F 28.9 °F 21.0 °F 52% 30.34 in 10.0 mi West 12.7 mph 20.7 mph N/A   Overcast
6:56 PM 37.0 °F 32.4 °F 21.0 °F 52% 30.35 in 10.0 mi West 5.8 mph - N/A   Overcast
7:56 PM 36.0 °F 32.1 °F 23.0 °F 59% 30.36 in 10.0 mi WSW 4.6 mph - N/A   Overcast
8:56 PM 36.0 °F 32.1 °F 23.0 °F 59% 30.35 in - SW 4.6 mph - N/A   Overcast
9:56 PM 36.0 °F 31.1 °F 23.0 °F 59% 30.35 in - SSW 5.8 mph - N/A   Overcast
10:56 PM 36.0 °F 33.3 °F 25.0 °F 64% 30.35 in - WSW 3.5 mph - N/A   Overcast
11:56 PM 36.0 °F 32.1 °F 26.1 °F 67% 30.35 in - West 4.6 mph - N/A   Overcast